Voltar ao catálogo

DELTA 1 DEB

AtivoPO
NORAD 26036·DEBRIS·🇺🇸 United States

Lançado Jun 12, 1975 de Vandenberg Space Force Base

Loading…

Próximas Passagens (próximas 24 horas)

TLE

AtualizadoSource: Space-Track

Época: Sep 14, 2026, 09:52 UTC

1 26036U 75052KA  26257.41161092  .00009639  00000-0  10233-2 0  9990
2 26036  99.9313 149.7378 0050660 137.3790 223.1369 14.88393322447755

Acompanhe DELTA 1 DEB em tempo real com AllMySat

Download on the App Store